When you browse on this site, cookies collect data to enhance your experience and personalize the content and advertising you see.
Visit our Privacy Policy to learn more. By continuing to use the site, you agree to this use of cookies and data.

Hourly Weather Worcester

Today, 11 August, Tuesday

Time Temperature Precipitation Wind Pressure Humidity
00:00 +20°C° 0 mm 2 mps 757 mmHg 93%
01:00 +20°C° 0 mm 2 mps 756 mmHg 94%
02:00 +20°C° 0 mm 2 mps 756 mmHg 94%
03:00 +19°C° 0 mm 2 mps 756 mmHg 95%
04:00 +19°C° 0 mm 2 mps 756 mmHg 94%
05:00 +21°C° 0 mm 1 mps 756 mmHg 93%
06:00 +21°C° 0 mm 1 mps 756 mmHg 92%
07:00 +22°C° 0 mm 1 mps 756 mmHg 86%
08:00 +24°C° 0 mm 1 mps 757 mmHg 80%
09:00 +25°C° 0 mm 1 mps 757 mmHg 75%
10:00 +27°C° 0 mm 1 mps 757 mmHg 68%
11:00 +28°C° 0 mm 1 mps 757 mmHg 61%
12:00 +30°C° 0 mm 1 mps 757 mmHg 55%
13:00 +31°C° 0 mm 1 mps 757 mmHg 52%
14:00 +31°C° 0 mm 1 mps 756 mmHg 48%
15:00 +32°C° 0 mm 1 mps 756 mmHg 45%
16:00 +31°C° 0 mm 1 mps 756 mmHg 49%
17:00 +31°C° 0 mm 1 mps 756 mmHg 53%
18:00 +30°C° 0 mm 2 mps 756 mmHg 58%
19:00 +28°C° 0.1 mm 1 mps 756 mmHg 64%
20:00 +27°C° 0.1 mm 1 mps 756 mmHg 70%
21:00 +25°C° 0.1 mm 1 mps 756 mmHg 77%
22:00 +24°C° 0 mm 2 mps 756 mmHg 81%
23:00 +23°C° 0 mm 2 mps 756 mmHg 84%

Tomorrow, 12 August, Wednesday

Time Temperature Precipitation Wind Pressure Humidity
00:00 +21°C° 0 mm 2 mps 756 mmHg 88%
01:00 +22°C° 0.2 mm 1 mps 756 mmHg 90%
02:00 +22°C° 0.2 mm 1 mps 756 mmHg 91%
03:00 +21°C° 0.2 mm 1 mps 755 mmHg 92%
04:00 +21°C° 0 mm 1 mps 755 mmHg 92%
05:00 +21°C° 0 mm 1 mps 755 mmHg 92%
06:00 +21°C° 0 mm 1 mps 755 mmHg 91%
07:00 +23°C° 0 mm 1 mps 755 mmHg 86%
08:00 +25°C° 0 mm 1 mps 755 mmHg 80%
09:00 +26°C° 0 mm 1 mps 755 mmHg 74%
10:00 +27°C° 0 mm 1 mps 755 mmHg 69%
11:00 +29°C° 0 mm 1 mps 755 mmHg 64%
12:00 +30°C° 0 mm 1 mps 755 mmHg 58%
13:00 +31°C° 0 mm 1 mps 755 mmHg 56%
14:00 +31°C° 0 mm 1 mps 755 mmHg 53%
15:00 +32°C° 0 mm 1 mps 755 mmHg 51%
16:00 +31°C° 0.9 mm 2 mps 754 mmHg 57%
17:00 +30°C° 0.9 mm 2 mps 754 mmHg 62%
18:00 +29°C° 0.9 mm 2 mps 754 mmHg 68%
19:00 +27°C° 4.7 mm 3 mps 754 mmHg 77%
20:00 +25°C° 4.7 mm 4 mps 754 mmHg 85%
21:00 +22°C° 4.7 mm 4 mps 755 mmHg 93%
22:00 +21°C° 1 mm 4 mps 754 mmHg 93%
23:00 +21°C° 1 mm 4 mps 754 mmHg 93%

Day after tomorrow, 13 August, Thursday

Time Temperature Precipitation Wind Pressure Humidity
00:00 +21°C° 1 mm 4 mps 754 mmHg 94%
01:00 +21°C° 1.6 mm 4 mps 754 mmHg 94%
02:00 +21°C° 1.6 mm 3 mps 754 mmHg 94%
03:00 +21°C° 1.6 mm 3 mps 754 mmHg 94%
04:00 +21°C° 1 mm 3 mps 754 mmHg 94%
05:00 +21°C° 1 mm 3 mps 754 mmHg 94%
06:00 +21°C° 1 mm 2 mps 753 mmHg 94%
07:00 +23°C° 0.7 mm 2 mps 754 mmHg 92%
08:00 +23°C° 0.7 mm 2 mps 754 mmHg 89%
09:00 +24°C° 0.7 mm 2 mps 754 mmHg 86%
10:00 +25°C° 0.2 mm 2 mps 754 mmHg 83%
11:00 +25°C° 0.2 mm 2 mps 754 mmHg 80%
12:00 +26°C° 0.2 mm 3 mps 754 mmHg 76%
13:00 +27°C° 0.2 mm 3 mps 754 mmHg 74%
14:00 +27°C° 0.2 mm 3 mps 753 mmHg 72%
15:00 +28°C° 0.2 mm 3 mps 753 mmHg 70%
16:00 +27°C° 2.2 mm 3 mps 753 mmHg 74%
17:00 +26°C° 2.2 mm 3 mps 753 mmHg 79%
18:00 +25°C° 2.2 mm 3 mps 753 mmHg 83%
19:00 +24°C° 7.8 mm 3 mps 753 mmHg 87%
20:00 +22°C° 7.8 mm 3 mps 753 mmHg 91%
21:00 +21°C° 7.8 mm 3 mps 753 mmHg 95%
22:00 +21°C° 4.7 mm 3 mps 753 mmHg 95%
23:00 +21°C° 4.7 mm 3 mps 753 mmHg 94%

14 August, Friday

Time Temperature Precipitation Wind Pressure Humidity
00:00 +20°C° 4.7 mm 3 mps 753 mmHg 94%
01:00 +20°C° 0.1 mm 3 mps 753 mmHg 94%
02:00 +20°C° 0.1 mm 2 mps 753 mmHg 94%
03:00 +20°C° 0.1 mm 2 mps 753 mmHg 94%
04:00 +20°C° 0.1 mm 2 mps 753 mmHg 94%
05:00 +20°C° 0.1 mm 2 mps 753 mmHg 94%
06:00 +20°C° 0.1 mm 2 mps 753 mmHg 94%
07:00 +20°C° 0 mm 2 mps 753 mmHg 92%
08:00 +22°C° 0 mm 1 mps 754 mmHg 90%
09:00 +22°C° 0 mm 1 mps 754 mmHg 88%
10:00 +23°C° 0.1 mm 1 mps 754 mmHg 85%
11:00 +23°C° 0.1 mm 1 mps 754 mmHg 82%
12:00 +24°C° 0.1 mm 1 mps 754 mmHg 80%
13:00 +24°C° 0.7 mm 1 mps 754 mmHg 78%
14:00 +25°C° 0.7 mm 1 mps 754 mmHg 77%
15:00 +25°C° 0.7 mm 1 mps 755 mmHg 76%
16:00 +25°C° 0.6 mm 1 mps 755 mmHg 78%
17:00 +24°C° 0.6 mm 1 mps 755 mmHg 80%
18:00 +24°C° 0.6 mm 1 mps 755 mmHg 83%
19:00 +23°C° 0.1 mm 1 mps 755 mmHg 86%
20:00 +21°C° 0.1 mm 2 mps 756 mmHg 89%
21:00 +20°C° 0.1 mm 2 mps 756 mmHg 92%
22:00 +19°C° 0 mm 2 mps 756 mmHg 93%
23:00 +19°C° 0 mm 2 mps 756 mmHg 94%

15 August, Saturday

Time Temperature Precipitation Wind Pressure Humidity
00:00 +18°C° 0 mm 2 mps 756 mmHg 95%
01:00 +19°C° 0 mm 1 mps 756 mmHg 95%
02:00 +19°C° 0 mm 1 mps 756 mmHg 95%
03:00 +19°C° 0 mm 1 mps 756 mmHg 95%
04:00 +20°C° 0.1 mm 1 mps 756 mmHg 95%
05:00 +20°C° 0.1 mm 1 mps 756 mmHg 95%
06:00 +20°C° 0.1 mm 1 mps 756 mmHg 94%
07:00 +21°C° 0.1 mm 1 mps 756 mmHg 92%
08:00 +21°C° 0.1 mm 1 mps 757 mmHg 90%
09:00 +22°C° 0.1 mm 1 mps 757 mmHg 88%
10:00 +23°C° 0.2 mm 1 mps 757 mmHg 84%
11:00 +24°C° 0.2 mm 1 mps 757 mmHg 80%
12:00 +25°C° 0.2 mm 2 mps 757 mmHg 76%
13:00 +25°C° 0.4 mm 2 mps 757 mmHg 76%
14:00 +25°C° 0.4 mm 2 mps 757 mmHg 76%
15:00 +25°C° 0.4 mm 2 mps 757 mmHg 75%
16:00 +24°C° 0.3 mm 2 mps 757 mmHg 77%
17:00 +24°C° 0.3 mm 2 mps 756 mmHg 79%
18:00 +24°C° 0.3 mm 3 mps 756 mmHg 81%
19:00 +21°C° 0.1 mm 2 mps 757 mmHg 85%
20:00 +20°C° 0.1 mm 2 mps 757 mmHg 88%
21:00 +20°C° 0.1 mm 1 mps 757 mmHg 91%
22:00 +20°C° 0 mm 1 mps 757 mmHg 92%
23:00 +19°C° 0 mm 1 mps 757 mmHg 93%

16 August, Sunday

Time Temperature Precipitation Wind Pressure Humidity
00:00 +19°C° 0 mm 1 mps 757 mmHg 94%
01:00 +19°C° 0 mm 1 mps 757 mmHg 95%
02:00 +18°C° 0 mm 1 mps 756 mmHg 95%
03:00 +18°C° 0 mm 1 mps 756 mmHg 96%
04:00 +18°C° 0 mm 1 mps 756 mmHg 95%
05:00 +19°C° 0 mm 1 mps 756 mmHg 95%
06:00 +19°C° 0 mm 1 mps 756 mmHg 95%
07:00 +19°C° 0 mm 2 mps 756 mmHg 91%
08:00 +20°C° 0 mm 2 mps 756 mmHg 87%
09:00 +23°C° 0 mm 2 mps 756 mmHg 83%
10:00 +22°C° 0 mm 3 mps 756 mmHg 79%
11:00 +24°C° 0 mm 3 mps 756 mmHg 75%
12:00 +25°C° 0 mm 3 mps 756 mmHg 71%
13:00 +26°C° 0 mm 3 mps 755 mmHg 67%
14:00 +26°C° 0 mm 3 mps 755 mmHg 63%
15:00 +27°C° 0 mm 3 mps 755 mmHg 60%
16:00 +26°C° 0 mm 3 mps 754 mmHg 62%
17:00 +26°C° 0 mm 2 mps 754 mmHg 65%
18:00 +25°C° 0 mm 2 mps 754 mmHg 67%
19:00 +24°C° 0.1 mm 2 mps 754 mmHg 71%
20:00 +22°C° 0.1 mm 3 mps 754 mmHg 75%
21:00 +20°C° 0.1 mm 3 mps 754 mmHg 79%
22:00 +20°C° 0.2 mm 3 mps 754 mmHg 83%
23:00 +19°C° 0.2 mm 3 mps 754 mmHg 86%
Show more